Regional Weather Roundup
Issued by NWS State College, PA

Home | Current Version | Previous Version | Graphics & Text | Print | Product List | Glossary Off
Versions: 1 2 3 4 5 6 7 8 9 10 11 12 13 14 15 16 17 18 19 20 21 22 23 24 25 26 27 28 29 30 31 32 33 34 35 36 37 38 39 40 41 42 43 44 45 46 47 48 49 50

000
ASUS41 KCTP 180010
RWRCTP

REGIONAL WEATHER ROUNDUP
NATIONAL WEATHER SERVICE STATE COLLEGE PA
700 PM EST TUE JAN 17 2017

Note: "fair" indicates few or no clouds below 12,000 feet with no
significant weather and/or obstructions to visibility.

* = STATION THAT DOES NOT REPORT PRECIPITATION /E.G. RAIN...SNOW...ETC/
    THUNDER OR FOG.

PAZ002>004-007>009-013>016-020>023-029>032-180100-
WESTERN PENNSYLVANIA

CITY           SKY/WX    TMP DP  RH WIND       PRES   REMARKS
ERIE           CLOUDY    46  43  89 W13G22    29.84R
MEADVILLE      CLOUDY    48  43  82 W9        29.83R
FRANKLIN*        N/A     52  45  76 SW10      29.85R
NEW CASTLE     CLOUDY    54  47  77 W12G17    29.86R
BEAVER COUNTY  CLOUDY    54  46  76 W7        29.86R
BUTLER*        PTCLDY    52  48  87 W10       29.88R
PITTSBURGH INT CLOUDY    55  52  89 W7        29.86R
PITTSBURGH     PTCLDY    57  50  77 W5        29.86R
INDIANA*       CLOUDY    54  54 100 W6        29.89R
LATROBE        CLEAR     55  55 100 SW12      29.86S
WASHINGTON CO* NOT AVBL
$$

PAZ004>006-010>012-017>019-024>028-033>037-041-042-045-046-049>053-180100-
CENTRAL PENNSYLVANIA

CITY           SKY/WX    TMP DP  RH WIND       PRES   REMARKS
BRADFORD       FOG       42  42 100 SE3       29.81F VSB 1/4
DUBOIS         CLOUDY    50  48  93 SW6       29.83S
CLEARFIELD     CLOUDY    39  39 100 E3        29.87S FOG
JOHNSTOWN      CLOUDY    55  51  86 SW16      29.87R
ALTOONA        FOG       37  36  96 NE3       29.89S VSB 1/2
STATE COLLEGE  DRZL/FOG  36  36 100 CALM      29.90F VSB 1
WILLIAMSPORT   CLOUDY    39  36  89 E10       29.94F FOG
SELINSGROVE    FOG       35  35 100 CALM      29.97S VSB 1
FT INDIANTOWN  CLOUDY    37  37 100 NE3       29.97F FOG
CAPITAL CITY   CLOUDY    41  39  93 E3        29.97F FOG
HARRISBURG     CLOUDY    40  40 100 SE3       29.97F FOG
YORK           CLOUDY    41  41 100 CALM      29.96F FOG
$$

PAZ038>040-043-044-047-048-054-055-060>062-067>071-180100-
EASTERN PENNSYLVANIA

CITY           SKY/WX    TMP DP  RH WIND       PRES   REMARKS
SCRANTON       LGT RAIN  38  36  92 E3        29.96F FOG
MOUNT POCONO   FOG       31  30  96 E7        29.95F VSB 1/4
ALLENTOWN      LGT RAIN  37  34  89 E6        30.01F FOG
QUAKERTOWN*    CLOUDY    37  37 100 E5        30.01S
READING        FOG       39  37  92 N6        29.99S VSB 1
LANCASTER      LGT RAIN  41  41 100 E7        29.98F FOG
COATESVILLE    MIX PCPN  41  41 100 E3        29.99F VSB 1
POTTSTOWN      LGT RAIN  40  39  97 NE5       30.02S FOG
BLUE BELL      CLOUDY    41  41 100 E5        30.00R
DOYLESTOWN     LGT RAIN  39  38  96 N7        30.01S
WILLOW GROVE   NOT AVBL
NORTH PHILA    RAIN      44  42  93 E7        30.02F FOG
PHILADELPHIA   LGT RAIN  43  42  97 E5        30.01F FOG
$$



USA.gov is the U.S. government's official web portal to all federal, state and local government web resources and services.